Weather History for KRDR - December, 2012

Change the Weather History Date:

Wednesday, December 12, 2012

  Actual Average Record
Temperature  
Mean Temperature 8 °F -  
Max Temperature 14 °F 24 °F 44 °F (1999)
Min Temperature 3 °F 8 °F -18 °F (2000)
Degree Days  
Heating Degree Days 56    
Moisture  
Dew Point 2 °F    
Average Humidity 78    
Maximum Humidity 79    
Minimum Humidity 72    
Precipitation  
Precipitation 0.00 in - - ()
Sea Level Pressure  
Sea Level Pressure 29.89 in    
Wind  
Wind Speed 11 mph (NNE)    
Max Wind Speed 14 mph    
Max Gust Speed -    
Visibility 10 miles    
Events Snow    
Averages and records for this station are not official NWS values.
T = Trace of Precipitation, MM = Missing Value Source: NWS Daily Summary

Daily Weather History Graph

Daily Weather History Graph

Search for Another Location

Airport or City:

Trip Planner

Search our weather history database for the weather conditions in past years. The results will help you decide how hot, cold, wet, or windy it might be!

Date:

Astronomy

Dec. 12, 2012 Rise Set
Actual Time 8:10 AM CST 4:36 PM CST
Civil Twilight 7:34 AM CST 5:12 PM CST
Nautical Twilight 6:54 AM CST 5:52 PM CST
Astronomical Twilight 6:17 AM CST 6:30 PM CST
Moon 7:14 AM CST (12/12) 4:16 PM CST (12/12)
Length of Visible Light 9h 38m
Length of Day
8h 26m
Waning Crescent, 1% of the Moon is Illuminated
Dec 12
Waning Crescent
Dec 13
New
Dec 19
First Quarter
Dec 28
Full
Jan 4
Last Quarter

Hourly Weather History & Observations

Time (CST) Temp. Windchill Dew Point Humidity Pressure Visibility Wind Dir Wind Speed Gust Speed Precip Events Conditions
12:15 AM 3.2 °F -13.1 °F -2.2 °F 78% 29.90 in 10.0 mi SE 11.5 mph - N/A Snow Light Snow
12:22 AM 3.2 °F -13.1 °F -2.2 °F 78% 29.89 in 10.0 mi SE 11.5 mph - N/A Snow Light Snow
12:25 AM 5.0 °F -10.8 °F -2.2 °F 72% 29.89 in 10.0 mi SE 11.5 mph - N/A   Mostly Cloudy
12:55 AM 4.8 °F -10.2 °F -1.5 °F 75% 29.89 in 10.0 mi SE 10.4 mph - 0.00 in   Overcast
1:07 AM 5.0 °F -9.1 °F -0.4 °F 78% 29.89 in 10.0 mi SSE 9.2 mph - N/A Snow Light Snow
1:13 AM 5.0 °F -11.6 °F -0.4 °F 78% 29.89 in 10.0 mi SSE 12.7 mph - N/A Snow Light Snow
1:29 AM 5.0 °F -10.0 °F -0.4 °F 78% 29.89 in 10.0 mi SE 10.4 mph - N/A   Overcast
1:31 AM 5.0 °F -10.8 °F -0.4 °F 78% 29.88 in 10.0 mi SE 11.5 mph - N/A   Overcast
1:44 AM 5.0 °F -10.8 °F -0.4 °F 78% 29.87 in 10.0 mi SE 11.5 mph - N/A   Overcast
1:46 AM 6.8 °F -8.6 °F -0.4 °F 72% 29.88 in 10.0 mi SE 11.5 mph - N/A   Overcast
1:55 AM 6.1 °F -10.2 °F -0.2 °F 75% 29.86 in 10.0 mi SE 12.7 mph - 0.00 in   Overcast
2:55 AM 7.0 °F -9.8 °F 0.7 °F 75% 29.84 in 10.0 mi ESE 13.8 mph - N/A   Overcast
3:55 AM 8.2 °F -7.5 °F 1.9 °F 76% 29.82 in 10.0 mi SE 12.7 mph - N/A   Overcast
4:03 AM 8.6 °F -6.3 °F 1.4 °F 73% 29.82 in 10.0 mi SE 11.5 mph - N/A   Overcast
4:46 AM 8.6 °F -7.0 °F 3.2 °F 79% 29.78 in 10.0 mi SE 12.7 mph - N/A Snow Light Snow
4:55 AM 9.0 °F -7.3 °F 3.2 °F 77% 29.78 in 10.0 mi SE 13.8 mph - 0.00 in Snow Light Snow
5:12 AM 8.6 °F -7.0 °F 3.2 °F 79% 29.77 in 10.0 mi SE 12.7 mph - N/A   Overcast
5:55 AM 10.8 °F -1.1 °F 4.8 °F 77% 29.77 in 10.0 mi SE 8.1 mph - 0.00 in   Overcast
5:58 AM 10.4 °F -4.1 °F 5.0 °F 79% 29.77 in 10.0 mi SSE 11.5 mph - N/A   Overcast
6:11 AM 10.4 °F -4.1 °F 5.0 °F 79% 29.76 in 10.0 mi SE 11.5 mph - N/A   Overcast
6:39 AM 12.2 °F 0.7 °F 5.0 °F 73% 29.77 in 10.0 mi SSE 8.1 mph - N/A   Overcast
6:55 AM 12.2 °F 0.7 °F 6.1 °F 76% 29.77 in 10.0 mi SE 8.1 mph - N/A   Overcast
7:32 AM 12.2 °F 1.7 °F 6.8 °F 79% 29.77 in 10.0 mi SE 6.9 mph - N/A   Overcast
7:55 AM 13.3 °F 4.2 °F 7.5 °F 78% 29.76 in 10.0 mi SE 5.8 mph - N/A   Overcast
8:55 AM 13.8 °F 3.7 °F 8.2 °F 78% 29.77 in 10.0 mi NNE 6.9 mph - N/A   Overcast
9:06 AM 14.0 °F 5.1 °F 6.8 °F 73% 29.78 in 10.0 mi North 5.8 mph - N/A   Overcast
9:55 AM 13.3 °F 2.0 °F 7.3 °F 77% 29.79 in 10.0 mi North 8.1 mph - N/A   Overcast
10:55 AM 14.2 °F 1.4 °F 7.7 °F 75% 29.82 in 10.0 mi North 10.4 mph - N/A   Overcast
11:55 AM 13.6 °F 0.0 °F 8.1 °F 78% 29.81 in 10.0 mi North 11.5 mph - N/A   Overcast
12:27 PM 14.0 °F 1.2 °F 8.6 °F 79% 29.82 in 10.0 mi North 10.4 mph - N/A   Overcast
12:47 PM 12.2 °F -2.5 °F 6.8 °F 79% 29.83 in 10.0 mi North 12.7 mph - N/A   Overcast
12:55 PM 12.4 °F -1.6 °F 7.0 °F 79% 29.83 in 10.0 mi North 11.5 mph - N/A   Overcast
12:57 PM 12.2 °F -2.5 °F 6.8 °F 79% 29.83 in 10.0 mi NNW 12.7 mph - N/A Snow Light Snow
12:59 PM 12.2 °F -3.1 °F 6.8 °F 79% 29.83 in 10.0 mi North 13.8 mph - N/A Snow Light Snow
1:24 PM 12.2 °F -1.8 °F 6.8 °F 79% 29.82 in 10.0 mi North 11.5 mph - N/A   Overcast
1:31 PM 12.2 °F -2.5 °F 6.8 °F 79% 29.83 in 10.0 mi North 12.7 mph - N/A Snow Light Snow
1:33 PM 12.2 °F -1.8 °F 6.8 °F 79% 29.84 in 10.0 mi North 11.5 mph - N/A Snow Light Snow
1:37 PM 12.2 °F -1.8 °F 6.8 °F 79% 29.84 in 10.0 mi North 11.5 mph - N/A Snow Light Snow
1:41 PM 12.2 °F -2.5 °F 5.0 °F 73% 29.84 in 10.0 mi North 12.7 mph - N/A   Overcast
1:51 PM 12.2 °F -2.5 °F 6.8 °F 79% 29.84 in 10.0 mi North 12.7 mph - N/A Snow Light Snow
1:53 PM 12.2 °F -3.1 °F 6.8 °F 79% 29.83 in 10.0 mi North 13.8 mph - N/A Snow Light Snow
1:57 PM 12.2 °F -2.5 °F 5.0 °F 73% 29.84 in 10.0 mi North 12.7 mph - N/A Snow Light Snow
2:13 PM 10.4 °F -3.3 °F 5.0 °F 79% 29.84 in 10.0 mi North 10.4 mph - N/A Snow Light Snow
2:16 PM 10.4 °F -4.8 °F 5.0 °F 79% 29.84 in 10.0 mi North 12.7 mph - N/A   Overcast
2:21 PM 10.4 °F -5.4 °F 5.0 °F 79% 29.85 in 10.0 mi North 13.8 mph - N/A   Overcast
2:55 PM 9.1 °F -5.6 °F 3.6 °F 78% 29.86 in 10.0 mi North 11.5 mph - 0.00 in   Overcast
3:06 PM 8.6 °F -6.3 °F 3.2 °F 79% 29.87 in 10.0 mi North 11.5 mph - N/A   Overcast
3:27 PM 8.6 °F -7.0 °F 3.2 °F 79% 29.88 in 10.0 mi North 12.7 mph - N/A   Overcast
3:50 PM 8.6 °F -7.0 °F 3.2 °F 79% 29.89 in 10.0 mi North 12.7 mph - N/A Snow Light Snow
3:51 PM 8.6 °F -7.0 °F 3.2 °F 79% 29.89 in 10.0 mi North 12.7 mph - N/A   Overcast
3:53 PM 8.6 °F -6.3 °F 1.4 °F 73% 29.90 in 10.0 mi North 11.5 mph - N/A   Overcast
4:06 PM 6.8 °F -8.6 °F 1.4 °F 79% 29.90 in 10.0 mi North 11.5 mph - N/A Snow Light Snow
4:12 PM 6.8 °F -7.8 °F 1.4 °F 79% 29.91 in 10.0 mi North 10.4 mph - N/A Snow Light Snow
4:14 PM 6.8 °F -7.8 °F 1.4 °F 79% 29.91 in 10.0 mi North 10.4 mph - N/A Snow Light Snow
4:30 PM 6.8 °F -8.6 °F 1.4 °F 79% 29.92 in 9.0 mi North 11.5 mph - N/A Snow Light Snow
4:39 PM 6.8 °F -7.8 °F 1.4 °F 79% 29.92 in 10.0 mi NNE 10.4 mph - N/A Snow Light Snow
4:45 PM 6.8 °F -8.6 °F 1.4 °F 79% 29.92 in 10.0 mi North 11.5 mph - N/A   Overcast
4:46 PM 6.8 °F -8.6 °F 1.4 °F 79% 29.93 in 10.0 mi North 11.5 mph - N/A Snow Light Snow
4:55 PM 6.4 °F -7.3 °F 1.0 °F 78% 29.93 in 10.0 mi North 9.2 mph - 0.00 in Snow Light Snow
5:11 PM 6.8 °F -8.6 °F 1.4 °F 79% 29.93 in 10.0 mi North 11.5 mph - N/A Snow Light Snow
5:13 PM 6.8 °F -8.6 °F 1.4 °F 79% 29.93 in 10.0 mi NNE 11.5 mph - N/A   Overcast
5:55 PM 5.5 °F -10.2 °F -0.4 °F 77% 29.96 in 10.0 mi North 11.5 mph - 0.00 in   Overcast
6:00 PM 5.0 °F -10.8 °F -0.4 °F 78% 29.96 in 10.0 mi North 11.5 mph - N/A   Overcast
6:06 PM 5.0 °F -10.0 °F -0.4 °F 78% 29.96 in 10.0 mi North 10.4 mph - N/A   Overcast
6:27 PM 5.0 °F -10.0 °F -0.4 °F 78% 29.97 in 10.0 mi North 10.4 mph - N/A   Overcast
6:37 PM 5.0 °F -10.0 °F -0.4 °F 78% 29.96 in 10.0 mi North 10.4 mph - N/A   Overcast
6:55 PM 5.5 °F -10.2 °F -0.8 °F 75% 29.97 in 10.0 mi North 11.5 mph - N/A   Overcast
7:37 PM 5.0 °F -11.6 °F -0.4 °F 78% 29.98 in 10.0 mi North 12.7 mph - N/A   Overcast
7:55 PM 5.4 °F -11.1 °F -0.6 °F 76% 29.99 in 10.0 mi NNW 12.7 mph - N/A   Overcast
8:50 PM 5.0 °F -10.8 °F -0.4 °F 78% 30.01 in 10.0 mi NNW 11.5 mph - N/A   Overcast
8:55 PM 5.2 °F -10.6 °F -0.6 °F 77% 30.01 in 10.0 mi North 11.5 mph - N/A   Overcast
9:02 PM 5.0 °F -10.8 °F -0.4 °F 78% 30.01 in 10.0 mi NNW 11.5 mph - N/A   Overcast
9:23 PM 5.0 °F -9.1 °F -0.4 °F 78% 30.01 in 10.0 mi NNW 9.2 mph - N/A   Overcast
9:55 PM 5.4 °F -9.6 °F -0.8 °F 76% 30.01 in 10.0 mi NNW 10.4 mph - N/A   Overcast
10:16 PM 5.0 °F -10.0 °F -0.4 °F 78% 30.02 in 10.0 mi NNW 10.4 mph - N/A   Overcast
10:28 PM 5.0 °F -10.0 °F -0.4 °F 78% 30.02 in 10.0 mi NNW 10.4 mph - N/A   Overcast
10:55 PM 5.7 °F -8.2 °F -0.2 °F 77% 30.03 in 10.0 mi NNW 9.2 mph - N/A   Overcast
11:10 PM 5.0 °F -10.8 °F -0.4 °F 78% 30.04 in 10.0 mi North 11.5 mph - N/A   Overcast
11:13 PM 5.0 °F -10.0 °F -0.4 °F 78% 30.04 in 10.0 mi NNW 10.4 mph - N/A   Overcast
11:33 PM 5.0 °F -10.0 °F -0.4 °F 78% 30.04 in 10.0 mi North 10.4 mph - N/A   Overcast
11:42 PM 5.0 °F -10.8 °F -0.4 °F 78% 30.04 in 10.0 mi NNW 11.5 mph - N/A   Overcast
11:46 PM 5.0 °F -11.6 °F -0.4 °F 78% 30.04 in 10.0 mi North 12.7 mph - N/A   Overcast
11:55 PM 5.5 °F -9.3 °F -0.4 °F 77% 30.04 in 10.0 mi North 10.4 mph - N/A   Overcast